Pagina principale
METAR-TAF:

METAR-TAF

Aeroporti :

Prato Nevoso, Italia

Monte Malanotte

latitudine: 44-15N, longitudine: 007-48E, altezza: 1741 m

Osservazione

Il bollettino è stato emesso 56 minuti fa, alle 14:55 UTC
Vento 3 kt da direzioni variabili
Temperature 12°C
Umidità 67%
Pressione 1011 hPa
Visibilità 10 km o più
nessuna nube inferiore a 1500 m e nessun cumulonembo

METAR: LIMY 191455Z VRB03KT CAVOK 12/06 Q1011 RMK SCT SCT190 VAL NIL VIS MIN 9999

Ora: 16:51 (15:51 UTC)


TAF: mancante

Osservazioni e previsioni meteorologiche di più di 4000 aeroporti (messaggi METAR e TAF).

Le stazioni disponibili sono rappresentate dai dischi gialli e rossi sulla carta.

Puntare il mouse per vedere il nome della stazione.

Clicca sopra per visualizzare le osservazioni e previsioni meteorologiche.

Per cambiare la mappa : fare clic sui pulsanti verdi con una croce nera per ingrandire, il pulsante verde con un trattino per diminuire, o sulla freccia verde per le mappe adiacenti.


METAR-TAF: